Tracking 19149 objects as of 20-Apr-2018
HD Live streaming from Space Station
objects crossing your sky now

JILIN 1

Track JILIN 1 now!
10-day predictions


NORAD ID: 40961
Int'l Code: 2015-057D
Perigee: 643.7 km
Apogee: 670.0 km
Inclination: 97.9 °
Period: 97.7 minutes
Semi major axis: 7027 km
RCS: Unknown
Launch date: October 7, 2015
Source: People's Republic of China (PRC)
Launch site: Jiuquan Satellite Launch Center, China (JSC)

JILIN 1 is a Chinese satellite designed for engineering tests.
aabbcc
Your satellite tracking list
Your tracking list is empty




NASA's NSSDC Master Catalog

Two Line Element Set (TLE):
1 40961U 15057D   18109.71604014  .00000066  00000-0  17827-4 0  9991
2 40961  97.9457 184.9086 0018758 162.9256 197.2585 14.73563563136290
Source of the keplerian elements: AFSPC